FW1417 Weather Reports


Display with metric or nautical units.
time (UTC)temp
F
wind
direction
speed
MPH
gust
MPH
rain 1hr
in
rain 24hr
in
rain mn
in
humidity
%
barometer
mb
20260901205727 84 79 2.0 3.0 0.00 0.15 0.15 73 1012.7
20260901205227 84 73 1.0 3.0 0.00 0.15 0.15 73 1012.7
20260901204727 84 89 1.0 3.0 0.00 0.15 0.15 73 1012.8
20260901204227 84 88 2.0 3.0 0.00 0.15 0.15 73 1012.7
20260901203727 84 68 1.0 3.0 0.00 0.15 0.15 73 1012.8
20260901203228 84 89 2.0 3.0 0.00 0.15 0.15 73 1012.8
20260901202728 84 69 1.0 3.0 0.00 0.15 0.15 73 1012.8
20260901202228 84 91 1.0 3.0 0.00 0.15 0.15 73 1012.9
20260901201728 85 81 1.0 3.0 0.00 0.15 0.15 73 1012.7
20260901201227 84 90 1.0 3.0 0.00 0.15 0.15 74 1012.8
20260901200227 83 136 0.0 3.0 0.00 0.15 0.15 75 1012.8
20260901195727 83 117 2.0 3.0 0.00 0.15 0.15 75 1012.9
20260901195227 83 150 1.0 3.0 0.00 0.15 0.15 76 1012.8
20260901194727 83 81 2.0 3.0 0.00 0.15 0.15 75 1012.9
20260901194227 83 74 1.0 3.0 0.00 0.15 0.15 76 1012.9
20260901193727 83 83 1.0 3.0 0.00 0.15 0.15 76 1012.9
20260901193227 83 76 2.0 3.0 0.00 0.15 0.15 77 1013.0
20260901192227 82 76 2.0 3.0 0.00 0.15 0.15 76 1013.1
20260901191727 83 79 2.0 3.0 0.00 0.15 0.15 76 1013.2
20260901191227 83 104 1.0 5.0 0.00 0.15 0.15 77 1013.2
20260901190727 83 91 2.0 5.0 0.00 0.15 0.15 76 1013.2
20260901190227 82 102 0.0 3.0 0.00 0.15 0.15 77 1013.2
20260901185727 82 153 1.0 6.0 0.00 0.15 0.15 78 1013.1
20260901185228 81 146 2.0 8.0 0.00 0.15 0.15 79 1013.0
20260901184227 81 153 4.0 8.0 0.00 0.15 0.15 79 1013.1
20260901183726 81 159 5.0 8.0 0.00 0.15 0.15 79 1013.2
20260901183227 81 125 5.0 8.0 0.00 0.15 0.15 79 1013.2
20260901182728 81 152 2.0 5.0 0.00 0.15 0.15 79 1013.2
20260901182228 81 161 2.0 3.0 0.00 0.15 0.15 80 1013.3
20260901181227 81 76 2.0 5.0 0.00 0.15 0.15 81 1013.2
20260901180727 80 137 0.0 7.0 0.00 0.15 0.15 83 1013.2
20260901180227 80 170 2.0 12.0 0.00 0.15 0.15 83 1013.0
20260901175728 79 142 3.0 12.0 0.00 0.15 0.15 84 1013.1
20260901175228 79 203 5.0 12.0 0.00 0.15 0.15 84 1013.0
20260901174727 79 137 4.0 9.0 0.00 0.15 0.15 85 1013.0
20260901174227 78 150 6.0 9.0 0.00 0.15 0.15 85 1012.9
20260901173727 78 219 2.0 9.0 0.00 0.15 0.15 87 1012.8
20260901173227 78 198 3.0 9.0 0.00 0.15 0.15 87 1012.9
20260901172727 77 126 3.0 9.0 0.00 0.15 0.15 88 1013.1
20260901172227 77 192 3.0 8.0 0.00 0.15 0.15 87 1013.6
20260901171227 77 203 2.0 5.0 0.00 0.15 0.15 87 1014.0
20260901170727 77 163 2.0 5.0 0.00 0.15 0.15 87 1014.0
20260901165728 77 174 1.0 6.0 0.01 0.15 0.15 88 1013.9
20260901165228 77 193 2.0 6.0 0.01 0.15 0.15 88 1013.9
20260901164727 76 217 3.0 6.0 0.01 0.15 0.15 88 1013.9
20260901164226 76 192 2.0 6.0 0.01 0.15 0.15 89 1013.8
20260901163726 76 172 2.0 8.0 0.02 0.15 0.15 89 1013.8
20260901162726 76 149 5.0 8.0 0.03 0.15 0.15 88 1013.8
20260901162226 76 163 3.0 7.0 0.03 0.15 0.15 88 1013.9
20260901161726 76 153 4.0 7.0 0.04 0.15 0.15 88 1014.1
20260901161227 76 150 3.0 7.0 0.05 0.15 0.15 88 1014.2
20260901160227 76 101 1.0 3.0 0.06 0.15 0.15 87 1014.6
20260901155226 76 97 0.0 2.0 0.05 0.14 0.14 87 1015.0
20260901154726 76 95 0.0 2.0 0.05 0.14 0.14 87 1015.2
20260901154229 76 95 0.0 2.0 0.05 0.14 0.14 87 1015.3
20260901153727 76 95 0.0 2.0 0.04 0.13 0.13 87 1015.5
20260901153227 76 94 1.0 2.0 0.04 0.13 0.13 87 1015.4
20260901152727 76 94 0.0 1.0 0.03 0.12 0.12 87 1015.4
20260901152226 76 94 0.0 1.0 0.03 0.12 0.12 87 1015.4
20260901151726 76 94 0.0 1.0 0.02 0.11 0.11 87 1015.2
20260901151227 76 98 0.0 1.0 0.01 0.10 0.10 87 1015.1
20260901150727 76 98 0.0 1.0 0.01 0.10 0.10 86 1015.2
20260901150226 76 98 0.0 2.0 0.00 0.09 0.09 86 1015.4
20260901145727 76 98 0.0 2.0 0.00 0.09 0.09 86 1015.4
20260901145227 76 143 1.0 2.0 0.00 0.09 0.09 86 1015.7
20260901144227 76 139 0.0 3.0 0.00 0.09 0.09 87 1015.1
20260901143727 76 78 1.0 3.0 0.00 0.09 0.09 86 1015.2
20260901143227 76 80 1.0 3.0 0.00 0.09 0.09 86 1015.0
20260901142726 76 144 0.0 1.0 0.00 0.09 0.09 87 1014.9
20260901142227 76 145 0.0 1.0 0.00 0.09 0.09 87 1014.9
20260901141727 76 145 0.0 3.0 0.00 0.09 0.09 87 1015.0
20260901141226 76 153 0.0 6.0 0.00 0.09 0.09 87 1014.9
20260901140726 76 153 2.0 6.0 0.00 0.09 0.09 87 1014.9
20260901140227 76 156 2.0 6.0 0.00 0.09 0.09 87 1014.6
20260901135226 76 120 1.0 2.0 0.00 0.09 0.09 88 1014.6
20260901134726 76 168 0.0 3.0 0.00 0.09 0.09 89 1014.8
20260901134227 75 173 1.0 3.0 0.00 0.09 0.09 89 1014.8
20260901133726 75 165 0.0 3.0 0.00 0.09 0.09 89 1014.9
20260901133227 75 163 1.0 3.0 0.00 0.09 0.09 89 1014.9
20260901132726 75 162 0.0 3.0 0.00 0.09 0.09 89 1014.8
20260901131727 75 161 1.0 5.0 0.00 0.09 0.09 89 1015.0
20260901130727 75 187 2.0 6.0 0.00 0.09 0.09 89 1015.0
20260901130226 75 172 2.0 3.0 0.00 0.09 0.09 89 1014.9
20260901125726 75 183 1.0 3.0 0.00 0.09 0.09 89 1014.9
20260901125227 74 161 0.0 3.0 0.00 0.09 0.09 89 1014.8
20260901124226 74 150 1.0 3.0 0.02 0.09 0.09 89 1014.8
20260901123727 74 167 1.0 3.0 0.02 0.09 0.09 89 1014.8
20260901123226 74 206 0.0 5.0 0.03 0.09 0.09 89 1014.9
20260901122726 74 111 2.0 5.0 0.03 0.09 0.09 89 1014.9
20260901122227 74 149 3.0 5.0 0.03 0.09 0.09 89 1014.9
20260901121226 74 143 2.0 5.0 0.03 0.09 0.09 89 1014.8
20260901120726 74 126 0.0 2.0 0.03 0.09 0.09 89 1014.8
20260901120227 74 148 0.0 2.0 0.03 0.09 0.09 89 1014.9
20260901115727 74 148 0.0 2.0 0.03 0.09 0.09 89 1014.9
20260901114226 73 148 0.0 3.0 0.01 0.07 0.07 89 1015.2
20260901113726 73 147 1.0 3.0 0.01 0.07 0.07 89 1015.0
20260901113226 73 150 2.0 3.0 0.00 0.06 0.06 89 1015.1
20260901112727 73 200 1.0 3.0 0.00 0.06 0.06 89 1015.2
20260901112226 73 161 2.0 5.0 0.00 0.06 0.06 89 1015.2
20260901111726 73 158 2.0 5.0 0.00 0.06 0.06 89 1015.3
20260901110726 73 188 1.0 2.0 0.00 0.06 0.06 89 1015.5
20260901110226 73 225 0.0 2.0 0.00 0.06 0.06 89 1015.4
20260901105726 73 225 0.0 2.0 0.00 0.06 0.06 89 1015.4
20260901104227 73 225 0.0 3.0 0.00 0.06 0.06 89 1015.2
20260901103726 73 225 1.0 3.0 0.00 0.06 0.06 89 1015.2
20260901103226 73 207 1.0 5.0 0.00 0.06 0.06 89 1015.1
20260901102726 73 170 2.0 5.0 0.00 0.06 0.06 89 1015.1
20260901102226 73 194 1.0 3.0 0.00 0.06 0.06 89 1015.0
20260901101226 73 206 1.0 5.0 0.00 0.06 0.06 89 1015.0
20260901100726 73 183 2.0 5.0 0.00 0.06 0.06 89 1015.0
20260901095226 73 173 1.0 5.0 0.00 0.06 0.06 89 1015.0
20260901094726 73 255 1.0 5.0 0.00 0.06 0.06 89 1015.0
20260901093227 73 178 1.0 5.0 0.00 0.06 0.06 89 1014.8
20260901092726 73 158 1.0 3.0 0.00 0.06 0.06 89 1014.9
20260901091726 73 155 1.0 7.0 0.00 0.06 0.06 89 1015.0
20260901090726 73 163 1.0 5.0 0.01 0.06 0.06 89 1015.2
20260901085226 73 165 1.0 5.0 0.01 0.06 0.06 88 1015.4
20260901084726 73 160 1.0 5.0 0.01 0.06 0.06 88 1015.3
20260901084226 73 171 1.0 3.0 0.01 0.06 0.06 88 1015.4
20260901083226 73 224 0.0 2.0 0.01 0.06 0.06 88 1015.5
20260901082226 73 224 0.0 2.0 0.01 0.06 0.06 88 1015.4
20260901081726 73 224 0.0 2.0 0.01 0.06 0.06 88 1015.4
20260901081226 73 225 0.0 2.0 0.01 0.06 0.06 88 1015.4
20260901080726 73 225 0.0 2.0 0.00 0.05 0.05 88 1015.6
20260901080225 73 223 0.0 2.0 0.00 0.05 0.05 88 1015.5
20260901075726 73 223 0.0 1.0 0.00 0.05 0.05 88 1015.5
20260901075225 73 223 0.0 2.0 0.01 0.05 0.05 88 1015.6
20260901074726 73 226 0.0 2.0 0.01 0.05 0.05 87 1015.7
20260901074226 73 226 0.0 2.0 0.02 0.05 0.05 87 1015.7
20260901073726 73 226 0.0 2.0 0.02 0.05 0.05 87 1015.8
20260901072726 73 227 1.0 7.0 0.02 0.05 0.05 87 1015.7
20260901072226 73 178 2.0 7.0 0.02 0.05 0.05 87 1015.6
20260901071725 72 182 3.0 6.0 0.02 0.05 0.05 87 1015.6
20260901071226 73 155 3.0 6.0 0.02 0.05 0.05 87 1015.6
20260901070725 72 188 3.0 6.0 0.02 0.05 0.05 87 1015.7
20260901070226 73 183 2.0 6.0 0.02 0.05 0.05 86 1015.8
20260901065726 73 173 2.0 6.0 0.02 0.05 0.05 86 1015.9
20260901064726 73 140 2.0 5.0 0.01 0.04 0.04 86 1015.9
20260901064226 73 173 2.0 6.0 0.00 0.03 0.03 86 1016.0
20260901063725 73 177 2.0 6.0 0.00 0.03 0.03 86 1015.9
20260901063226 72 116 2.0 6.0 0.00 0.03 0.03 86 1015.9
20260901061726 72 125 2.0 8.0 0.00 0.03 0.03 86 1016.1
20260901061225 72 143 2.0 8.0 0.00 0.03 0.03 86 1016.2
20260901060226 72 108 3.0 7.0 0.01 0.03 0.03 86 1016.3
20260901055726 72 153 3.0 6.0 0.01 0.03 0.03 85 1016.2
20260901055225 72 138 1.0 3.0 0.02 0.03 0.03 85 1016.4
20260901054226 72 190 0.0 6.0 0.02 0.03 0.03 85 1016.5
20260901053725 72 196 2.0 6.0 0.02 0.03 0.03 85 1016.6
20260901052726 73 205 1.0 3.0 0.03 0.03 0.03 85 1016.8
20260901051725 73 161 2.0 7.0 0.03 0.03 0.03 84 1016.8
20260901051226 73 171 2.0 6.0 0.03 0.03 0.03 84 1016.8
20260901050725 73 172 2.0 6.0 0.03 0.03 0.03 84 1016.8
20260901045727 73 138 2.0 8.0 0.02 0.02 0.02 83 1016.9
20260901045226 73 150 3.0 10.0 0.01 0.01 0.01 83 1016.9
20260901044726 73 154 3.0 10.0 0.01 0.01 0.01 83 1016.9
20260901044225 73 138 3.0 10.0 0.01 0.01 0.01 82 1016.9
20260901042728 73 173 3.0 9.0 0.00 0.00 0.00 81 1016.9
20260901042228 74 154 2.0 6.0 0.00 0.00 0.00 81 1016.8
20260901041728 73 197 3.0 6.0 0.00 0.00 0.00 81 1016.8
20260901040728 74 152 3.0 7.0 0.00 0.00 0.00 81 1017.0
20260901040228 74 196 2.0 8.0 0.00 0.00 0.00 81 1017.0
20260901035728 73 132 2.0 8.0 0.00 0.00 0.00 81 1017.0
20260901035228 73 179 3.0 8.0 0.00 0.00 0.00 80 1017.0
20260901034728 74 103 3.0 7.0 0.00 0.00 0.00 80 1017.0
20260901034229 73 144 2.0 8.0 0.00 0.00 0.00 80 1017.1
20260901033728 74 196 3.0 8.0 0.00 0.00 0.00 80 1017.0
20260901033228 74 134 3.0 8.0 0.00 0.00 0.00 80 1017.0
20260901032228 74 148 3.0 6.0 0.00 0.00 0.00 80 1017.1
20260901031727 74 165 3.0 8.0 0.00 0.00 0.00 80 1017.2
20260901030728 74 141 2.0 6.0 0.00 0.00 0.00 80 1017.1
20260901030228 74 128 2.0 7.0 0.00 0.00 0.00 80 1017.2
20260901025728 74 144 2.0 7.0 0.00 0.00 0.00 80 1017.3
20260901025228 74 198 3.0 7.0 0.00 0.00 0.00 79 1017.4
20260901024728 74 202 1.0 6.0 0.00 0.00 0.00 79 1017.4
20260901024228 74 166 2.0 7.0 0.00 0.00 0.00 79 1017.5
20260901023728 74 155 3.0 7.0 0.00 0.00 0.00 79 1017.6
20260901022728 74 148 4.0 6.0 0.00 0.00 0.00 79 1017.9
20260901022228 74 163 3.0 7.0 0.00 0.00 0.00 79 1017.8
20260901021728 74 181 4.0 7.0 0.00 0.00 0.00 78 1017.8
20260901021228 74 152 2.0 7.0 0.00 0.00 0.00 78 1017.7
20260901020728 74 186 4.0 7.0 0.00 0.01 0.00 78 1017.7
20260901020228 74 136 2.0 6.0 0.00 0.01 0.00 78 1017.7
20260901015728 74 128 3.0 7.0 0.00 0.02 0.00 78 1017.7
20260901015227 74 173 3.0 7.0 0.00 0.02 0.00 78 1017.7
20260901014728 74 166 1.0 7.0 0.00 0.02 0.00 78 1017.8
20260901014228 74 157 4.0 7.0 0.00 0.03 0.00 78 1017.8
20260901013727 74 143 2.0 6.0 0.00 0.03 0.00 77 1017.8
20260901013228 74 188 2.0 6.0 0.00 0.03 0.00 77 1017.9
20260901012727 74 191 3.0 8.0 0.00 0.03 0.00 77 1017.9
20260901012228 74 145 3.0 8.0 0.00 0.03 0.00 77 1017.9
20260901011728 74 144 2.0 7.0 0.00 0.03 0.00 77 1017.9
20260901011228 74 153 3.0 7.0 0.00 0.03 0.00 77 1017.8
20260901010728 74 189 1.0 7.0 0.00 0.03 0.00 77 1017.7
20260901010228 74 140 2.0 7.0 0.00 0.03 0.00 76 1017.7
20260901005728 74 168 2.0 6.0 0.00 0.03 0.00 76 1017.7
20260901005228 74 159 2.0 6.0 0.00 0.03 0.00 76 1017.6
20260901004728 75 207 2.0 6.0 0.00 0.03 0.00 76 1017.6
20260901004228 75 155 3.0 6.0 0.00 0.03 0.00 76 1017.6
20260901003727 75 125 2.0 6.0 0.00 0.03 0.00 75 1017.5
20260901003228 75 163 3.0 8.0 0.00 0.03 0.00 75 1017.5
20260901002727 75 172 5.0 8.0 0.00 0.03 0.00 75 1017.5
20260901002228 75 180 3.0 8.0 0.00 0.03 0.00 74 1017.5
20260901001728 75 225 3.0 8.0 0.00 0.03 0.00 74 1017.6
20260901000729 75 181 3.0 7.0 0.00 0.03 0.00 73 1017.5
20260901000229 75 175 2.0 5.0 0.00 0.03 0.00 73 1017.5
20260831235727 76 196 2.0 5.0 0.00 0.03 0.00 73 1017.6
20260831235227 75 146 2.0 7.0 0.00 0.03 0.00 72 1017.5
20260831234728 75 148 1.0 7.0 0.00 0.03 0.00 72 1017.5
20260831234228 75 145 2.0 7.0 0.00 0.03 0.00 72 1017.6
20260831233728 76 152 2.0 7.0 0.00 0.03 0.00 72 1017.5
20260831233227 76 214 3.0 7.0 0.00 0.03 0.00 71 1017.6
20260831232727 76 138 2.0 5.0 0.00 0.03 0.00 71 1017.6
20260831232228 76 153 2.0 5.0 0.00 0.03 0.00 71 1017.6
20260831231727 76 144 3.0 5.0 0.00 0.03 0.00 71 1017.6
20260831231227 76 173 2.0 5.0 0.00 0.03 0.00 70 1017.7
20260831230727 76 151 2.0 3.0 0.00 0.03 0.00 70 1017.6
20260831230227 76 153 1.0 5.0 0.00 0.03 0.00 69 1017.6
20260831225727 76 188 2.0 5.0 0.00 0.03 0.00 69 1017.8
20260831225227 76 167 2.0 3.0 0.00 0.03 0.00 68 1017.7
20260831224228 76 160 2.0 3.0 0.00 0.03 0.00 69 1017.7
20260831223727 76 167 1.0 5.0 0.00 0.03 0.00 69 1017.7
20260831223227 76 150 2.0 5.0 0.00 0.03 0.00 69 1017.7
20260831222728 76 182 3.0 6.0 0.00 0.03 0.00 69 1017.8
20260831222228 76 174 2.0 7.0 0.00 0.03 0.00 69 1017.7
20260831221728 76 183 3.0 7.0 0.00 0.03 0.00 69 1017.7
20260831221227 76 101 2.0 7.0 0.00 0.03 0.00 69 1017.7
20260831220727 76 138 3.0 6.0 0.00 0.03 0.00 69 1017.8
20260831215727 76 167 1.0 5.0 0.00 0.03 0.00 69 1017.9
20260831215228 76 164 2.0 6.0 0.00 0.03 0.00 69 1017.9
20260831214227 76 143 3.0 7.0 0.00 0.03 0.00 69 1017.9
20260831213727 76 157 3.0 7.0 0.00 0.03 0.00 69 1017.8
20260831213228 76 133 2.0 7.0 0.00 0.03 0.00 69 1017.9
20260831212728 76 155 2.0 7.0 0.00 0.03 0.00 69 1017.9
20260831212227 76 173 3.0 7.0 0.00 0.03 0.00 69 1018.0
20260831211228 76 132 2.0 8.0 0.00 0.03 0.00 69 1018.2
20260831210727 76 150 2.0 8.0 0.00 0.03 0.00 69 1018.2
20260831210228 76 155 3.0 8.0 0.00 0.03 0.00 69 1018.3